Temperature
25 22 23 24 24 25 25 25 24 24 25 24 23 23 22 22 22 21 21 21 21 21 21 21 21 20 20 20 19 19 19 19 18 18 18 18 18 18 18 18 18 17 17 17
22 23 24 24 24 25 25 25 25 24 24 24 23 23 22 22 21 21 21 21 21 21 21 21 21 20 20 20 19 19 19 18 18 18 18 18 18 18 18 18 17 17 17 17
24 24 25 25 26 26 25 25 25 25 24 23 24 23 22 22 22 22 22 22 21 21 21 21 21 20 20 20 19 19 19 18 18 18 18 18 18 18 17 17 18 17 17 17
24 24 25 26 26 26 25 25 25 25 23 21 23 22 22 20 20 20 21 21 21 21 21 21 21 20 20 20 19 19 19 18 18 18 18 18 18 18 18 18 18 18 17 17
24 25 26 26 26 25 25 24 24 23 22 21 21 21 21 20 21 20 20 21 21 21 21 21 21 21 20 20 19 19 19 18 18 18 18 18 18 18 18 18 18 18 17 17
24 25 26 26 26 25 25 23 21 19 19 21 22 22 21 20 21 21 20 21 21 21 21 21 21 20 20 20 19 19 19 19 18 18 18 18 18 18 18 18 18 18 17 17
24 25 25 26 26 25 23 21 21 21 20 21 20 21 20 21 21 21 21 21 21 22 21 21 21 20 20 20 19 19 19 19 18 18 18 18 18 17 17 18 18 17 17 17
23 23 25 26 26 25 23 22 21 22 21 20 20 21 21 21 21 22 22 22 22 22 21 21 21 21 20 20 19 19 19 19 18 18 18 18 18 17 17 18 17 17 17 17
21 23 24 25 25 24 23 21 20 18 20 20 20 21 21 21 21 21 21 21 21 22 21 21 21 21 20 20 19 19 19 19 18 18 18 18 18 18 17 17 17 17 17 17
21 23 24 24 25 23 22 18 18 19 20 21 22 21 21 22 21 20 20 20 21 22 21 21 21 21 20 20 19 19 19 19 18 18 18 18 18 17 17 17 17 17 17 17
22 23 23 24 25 24 22 20 17 16 18 19 21 21 21 20 20 20 20 21 21 22 22 21 21 21 20 20 19 19 19 19 18 18 18 18 18 18 17 17 17 17 17 17
20 19 21 23 23 23 24 21 19 21 19 17 19 20 21 20 20 20 21 21 22 22 22 22 21 21 20 20 19 19 19 19 18 18 18 18 18 18 17 17 17 17 17 17
20 19 20 22 22 23 23 21 19 17 16 16 19 21 20 19 20 21 21 21 22 22 22 22 21 21 20 20 20 19 19 19 19 18 18 18 18 17 17 17 17 17 17 17
20 18 20 21 21 22 23 21 19 19 18 18 19 21 20 19 19 20 21 21 22 22 22 22 21 21 20 20 20 20 19 19 19 18 18 18 18 17 17 17 17 17 16 16
20 20 20 21 22 23 23 23 21 21 19 20 20 19 20 19 19 20 21 21 21 21 22 22 21 21 20 20 20 20 19 19 18 18 18 18 17 17 17 17 17 16 16 16
18 19 21 22 22 23 23 23 22 22 21 20 21 20 19 19 20 20 20 21 21 21 21 22 21 21 20 20 20 19 19 19 18 18 18 18 17 17 17 17 16 16 16 16
16 18 19 20 22 23 22 21 21 21 20 20 21 20 18 18 18 19 20 21 21 22 22 22 21 21 20 20 20 19 19 18 18 18 18 17 17 17 17 16 16 16 16 15
16 16 16 18 21 22 20 20 21 20 19 19 19 18 18 18 19 20 20 21 21 21 22 21 21 21 21 20 20 19 18 18 18 17 17 17 17 16 16 16 16 15 15 15
15 16 15 16 19 20 21 20 20 20 19 18 18 17 18 18 19 19 20 20 21 21 21 21 21 21 20 20 19 19 18 18 17 17 17 16 16 16 16 16 15 15 15 15
14 15 15 16 19 20 20 20 20 20 20 19 18 17 18 18 18 18 20 20 21 21 21 21 21 20 20 20 19 19 18 17 17 17 17 16 16 16 16 15 15 15 14 14
17 15 16 17 19 19 19 19 20 20 19 19 18 18 18 18 18 19 20 20 20 20 20 20 20 20 19 19 19 18 18 17 17 16 16 16 16 16 15 15 15 14 14 14
16 16 15 15 18 19 18 18 18 18 18 18 18 19 19 19 19 19 20 20 20 20 19 19 19 19 19 18 18 17 17 17 17 16 16 16 15 15 15 15 14 14 14 14
14 14 14 15 16 16 16 17 18 18 18 19 19 19 20 19 19 19 19 19 19 19 19 18 18 18 18 18 17 17 17 16 16 16 15 15 15 15 14 14 14 14 13 13
14 13 13 14 15 15 16 17 18 19 19 19 19 19 19 19 19 19 19 19 19 18 18 18 18 17 17 17 17 16 16 16 16 15 15 15 15 14 14 14 13 13 13 13
14 13 13 14 15 16 17 17 18 18 19 19 19 19 19 19 18 18 18 18 18 17 17 17 17 17 16 16 16 16 16 15 15 15 15 14 14 14 14 13 13 13 12 12
13 13 14 14 15 15 16 17 18 18 18 18 18 18 18 18 18 17 17 17 17 17 17 17 16 16 16 15 16 15 15 15 15 14 14 14 14 13 13 13 12 12 12 12
Wind_Speed
5 5 1 3 4 3 2 1 2 3 2 3 2 1 1 3 4 5 5 5 5 5 3 4 6 6 6 5 6 6 6 5 4 3 4 4 3 3 3 4 6 7 7 7
6 2 4 3 3 3 2 0 1 3 4 3 3 3 2 2 4 4 5 6 6 4 3 4 5 6 6 6 5 5 6 6 5 4 3 3 3 2 3 3 4 6 7 7
4 4 2 2 1 1 1 3 3 1 3 6 4 5 4 2 0 1 3 4 4 6 6 6 6 6 6 6 6 6 6 6 6 5 3 3 2 1 1 1 2 4 7 8
3 4 1 0 1 4 3 4 4 3 4 3 3 1 5 3 2 2 3 3 4 5 5 5 6 6 6 6 5 5 6 6 5 6 5 5 4 3 3 3 3 3 6 7
4 2 1 2 4 6 4 3 4 4 5 3 5 2 7 3 3 5 4 5 4 4 5 5 5 6 5 5 5 5 5 5 5 5 6 5 3 3 2 2 2 3 3 5
5 3 4 5 1 3 5 7 8 7 6 3 3 0 6 4 5 5 4 4 5 5 5 4 3 4 4 4 4 4 5 4 5 5 5 5 5 4 3 3 3 2 2 2
4 4 3 3 2 4 6 7 5 6 5 3 4 1 8 7 6 5 5 5 6 6 6 5 5 4 4 5 5 4 5 5 5 5 4 4 4 4 5 4 4 3 2 2
3 5 4 4 6 6 5 9 8 4 4 4 4 3 7 6 4 3 2 4 5 6 5 6 6 5 5 5 5 4 5 5 5 5 4 3 4 3 3 4 3 3 3 3
7 6 5 3 3 10 7 4 7 8 3 1 5 6 7 2 3 1 2 4 5 6 6 5 5 5 4 4 4 5 5 4 4 4 4 3 3 3 3 3 3 2 2 2
9 3 4 4 6 6 6 10 7 6 5 1 5 5 5 5 4 2 3 5 5 5 5 4 4 5 4 4 3 3 4 4 4 4 4 3 3 2 3 2 2 2 2 2
6 4 4 3 3 6 5 6 7 6 6 6 2 7 6 7 6 6 5 5 5 5 5 5 4 3 3 3 3 3 4 3 4 4 3 3 2 2 2 2 2 2 2 2
6 5 2 5 4 2 5 8 8 6 4 5 5 7 5 5 5 4 4 4 4 5 4 4 3 3 3 3 3 3 4 4 3 4 3 3 2 2 1 1 1 2 2 2
8 7 3 5 5 2 4 4 5 7 6 6 5 7 3 1 1 3 3 3 3 3 3 3 3 2 2 2 3 3 3 4 3 4 4 3 2 2 2 1 1 2 3 3
8 6 7 9 8 5 4 4 6 7 5 6 7 7 6 4 3 3 3 3 3 3 3 3 2 2 2 2 3 4 3 4 4 4 4 3 3 2 2 2 2 3 3 3
7 6 6 5 4 4 4 5 7 6 8 9 8 8 9 7 5 4 3 4 4 4 3 3 3 3 2 2 2 3 4 4 4 4 4 3 3 3 3 3 3 3 3 3
5 7 5 2 1 3 2 2 5 4 4 5 3 6 6 2 2 2 3 5 5 5 5 4 4 4 4 4 3 3 3 4 5 5 4 3 3 4 4 3 4 4 4 4
5 7 6 3 1 3 0 2 3 3 2 5 6 6 1 2 3 4 4 5 5 6 5 5 5 5 4 4 4 4 3 3 4 4 3 3 3 3 3 3 4 4 3 3
8 7 5 4 4 4 6 2 3 4 1 2 3 3 3 4 2 2 2 4 4 3 4 4 4 4 3 3 4 4 4 4 4 4 4 3 4 4 3 3 3 3 3 3
5 9 6 5 5 2 3 2 3 4 1 1 2 2 2 3 4 3 1 2 3 3 3 3 3 4 4 4 4 5 4 4 4 4 4 3 4 4 4 4 3 3 3 3
7 6 7 6 6 6 7 2 1 5 1 2 3 3 3 5 3 2 1 1 2 2 2 3 3 4 4 4 5 6 5 4 4 4 4 4 4 4 5 4 3 3 3 3
5 6 6 5 4 5 4 3 1 4 6 2 3 4 5 3 3 2 2 4 4 5 4 4 4 4 3 3 5 5 4 4 4 4 4 4 4 4 4 4 3 4 5 5
4 5 4 5 4 5 3 2 5 5 1 2 3 3 5 4 3 3 5 5 5 6 5 5 5 4 4 4 5 4 2 2 3 4 4 4 4 4 4 5 4 5 5 5
2 4 5 5 5 3 3 1 1 2 3 2 3 3 6 6 4 4 4 5 5 5 5 5 5 5 4 3 3 3 1 1 4 4 4 4 4 4 4 5 5 4 4 4
1 2 4 3 1 2 3 2 3 2 2 2 3 3 4 5 5 5 4 4 4 5 4 4 5 5 4 3 3 2 1 2 4 5 4 5 5 5 4 4 3 4 3 3
1 2 4 2 0 2 4 4 3 5 6 6 5 4 4 5 4 4 4 4 4 4 4 4 4 4 3 3 3 2 2 4 4 4 4 4 4 5 5 4 3 2 2 2
1 3 5 5 5 4 1 1 2 5 5 5 6 6 5 5 4 4 4 4 3 4 3 4 4 4 3 3 2 2 2 4 5 4 3 3 3 4 4 5 4 7 4 5
Wind_Direction
35 67 152 217 177 169 165 209 297 295 330 68 80 26 351 154 158 169 181 179 180 197 183 157 157 153 149 152 159 167 167 164 155 157 164 166 190 188 189 205 205 201 201 198
41 321 240 188 162 158 161 73 325 343 16 68 63 22 11 160 194 194 195 195 187 179 158 159 152 153 158 161 162 166 171 167 170 177 169 163 165 184 190 196 200 199 194 195
171 238 220 148 145 147 215 189 207 184 33 41 59 0 341 334 240 187 195 190 184 185 180 177 170 169 165 171 175 180 178 174 174 164 140 122 107 89 116 189 210 208 200 201
225 255 233 213 229 159 259 235 182 133 88 6 48 301 301 304 313 254 222 194 190 184 173 175 176 176 180 186 177 175 177 177 177 166 164 165 174 188 200 206 216 215 205 202
240 228 169 229 232 177 201 67 95 90 105 51 23 94 293 324 284 267 239 202 188 177 171 177 181 183 181 175 173 174 172 177 177 172 173 171 180 196 194 196 203 216 209 206
239 244 215 213 205 150 124 72 56 49 66 42 328 103 286 259 240 258 230 192 176 172 171 172 167 160 164 165 170 169 170 181 179 176 175 177 186 194 185 191 203 216 218 218
308 296 255 187 104 51 86 84 36 14 20 267 301 244 256 268 248 232 217 189 177 172 166 166 166 174 181 178 177 173 177 185 183 183 188 190 195 194 198 197 201 202 210 219
180 282 256 199 178 168 152 133 151 177 207 277 333 263 266 281 282 250 187 161 165 168 170 177 184 184 186 185 177 175 182 188 182 185 189 187 189 193 197 196 192 198 214 225
174 246 286 254 190 135 128 130 148 125 132 36 304 300 309 333 1 39 118 143 169 174 180 183 178 175 181 183 184 185 184 179 177 178 175 179 185 189 194 192 189 203 216 215
156 214 295 310 85 42 129 138 103 112 133 214 305 293 260 268 252 230 193 185 180 169 178 180 179 178 182 183 179 173 171 176 172 167 177 185 183 186 189 183 191 201 203 188
140 151 310 15 150 162 111 94 99 101 137 145 220 271 234 222 219 211 217 205 183 174 179 180 185 181 171 168 165 162 161 159 163 163 164 159 166 171 170 179 195 185 167 152
141 126 236 273 277 202 152 155 144 143 179 158 167 263 284 223 210 199 214 204 181 174 176 166 154 147 157 172 174 171 167 168 170 156 147 151 153 139 137 160 170 153 138 134
140 123 91 349 345 37 112 126 124 118 114 145 164 258 320 357 186 200 206 202 171 154 153 131 120 135 160 182 175 174 173 173 164 148 145 147 150 147 140 125 116 113 115 114
124 120 159 185 208 186 148 144 142 124 138 182 214 243 287 278 236 221 210 188 158 154 156 142 141 162 166 177 183 176 178 170 160 151 149 155 161 156 140 119 105 105 111 111
121 147 176 200 197 159 155 162 163 164 173 177 218 221 247 241 224 215 187 159 147 156 159 158 170 176 179 187 181 176 172 162 155 152 156 168 161 142 126 116 99 94 96 100
105 140 140 141 178 164 134 146 161 169 166 187 200 250 253 235 164 161 165 158 165 181 189 179 175 175 188 196 186 169 163 158 152 156 164 157 144 138 130 122 108 94 84 84
122 125 126 184 239 97 226 241 176 160 170 171 202 236 213 170 187 190 185 174 182 188 187 177 180 187 198 196 184 165 158 138 141 149 145 138 138 133 126 120 111 108 101 88
130 117 121 129 114 185 243 283 139 134 123 219 216 221 198 200 171 138 151 167 182 187 189 187 179 180 181 168 161 149 138 139 142 139 134 132 130 128 120 117 115 108 101 98
125 127 113 119 146 222 281 228 171 154 301 244 181 184 134 121 85 20 5 172 180 188 183 181 171 164 147 141 145 139 139 139 143 149 153 155 148 143 137 131 123 110 106 94
60 87 109 117 135 201 229 247 196 119 300 258 165 164 145 117 124 262 316 91 93 89 104 125 120 116 119 127 130 136 145 149 170 177 172 160 161 155 151 146 132 111 112 106
59 57 97 126 152 238 254 282 125 158 230 219 168 168 157 160 190 168 83 73 71 71 75 89 96 99 106 113 122 133 156 175 182 167 153 153 155 150 140 127 120 121 117 107
137 124 136 127 141 232 298 104 166 203 216 146 151 156 139 125 106 91 84 79 78 72 71 82 88 81 82 102 117 126 177 186 144 140 141 143 139 135 129 124 119 121 122 114
127 171 168 166 190 251 300 239 230 154 145 149 145 148 133 121 114 98 87 84 81 80 80 87 96 83 68 74 107 128 236 150 126 124 131 129 122 116 121 127 128 120 120 123
51 103 111 91 4 342 4 38 46 82 113 110 118 127 129 126 128 115 100 88 78 71 79 90 94 89 75 68 79 123 156 126 125 131 137 134 127 119 109 105 117 127 136 142
201 107 103 91 279 46 24 28 48 61 72 76 75 80 98 109 108 109 100 91 87 83 79 84 92 91 74 62 74 85 119 119 118 127 136 137 135 132 123 109 91 126 129 160
241 172 154 187 203 157 172 350 66 84 77 82 87 75 73 91 101 95 94 92 95 92 89 86 82 78 59 59 62 56 91 122 126 130 137 143 141 137 134 124 90 55 73 85
Height
1510 1516 1522 1519 1519 1520 1523 1527 1529 1524 1517 1519 1523 1524 1522 1521 1522 1524 1525 1526 1528 1530 1532 1534 1536 1537 1539 1541 1542 1544 1546 1548 1550 1551 1552 1554 1556 1559 1560 1562 1564 1565 1567 1568
1517 1520 1515 1514 1516 1518 1522 1527 1528 1524 1518 1521 1525 1526 1523 1522 1522 1523 1524 1526 1527 1529 1531 1533 1534 1536 1538 1540 1541 1543 1544 1546 1548 1550 1552 1553 1555 1557 1559 1561 1562 1564 1565 1567
1518 1517 1512 1514 1516 1519 1522 1525 1525 1526 1523 1524 1526 1532 1528 1524 1523 1523 1524 1524 1526 1528 1530 1532 1533 1535 1537 1538 1540 1541 1543 1544 1546 1548 1550 1552 1554 1555 1557 1559 1560 1562 1564 1565
1515 1512 1512 1514 1516 1518 1525 1516 1518 1522 1532 1541 1535 1549 1533 1528 1525 1522 1522 1523 1525 1527 1529 1530 1532 1534 1535 1537 1539 1540 1541 1543 1545 1546 1548 1550 1552 1553 1555 1557 1558 1560 1562 1563
1515 1511 1511 1514 1513 1513 1517 1515 1519 1525 1533 1543 1542 1548 1542 1530 1528 1523 1521 1522 1524 1526 1528 1529 1531 1533 1535 1536 1537 1539 1540 1542 1543 1545 1546 1548 1550 1552 1554 1555 1557 1558 1560 1561
1511 1508 1508 1508 1507 1509 1513 1520 1527 1536 1544 1557 1548 1550 1547 1534 1526 1521 1520 1521 1523 1525 1526 1528 1531 1532 1534 1535 1536 1538 1539 1540 1542 1544 1545 1547 1548 1550 1551 1553 1555 1556 1557 1559
1514 1509 1505 1505 1510 1512 1516 1534 1556 1558 1566 1563 1549 1550 1545 1525 1520 1519 1518 1520 1521 1523 1525 1527 1529 1531 1532 1534 1535 1537 1538 1539 1541 1542 1544 1545 1547 1548 1550 1551 1552 1554 1555 1556
1524 1525 1508 1504 1507 1515 1519 1530 1555 1565 1569 1564 1552 1551 1535 1520 1517 1516 1517 1519 1521 1523 1524 1526 1528 1530 1532 1533 1534 1536 1537 1538 1540 1541 1543 1544 1546 1547 1548 1549 1550 1551 1552 1554
1525 1523 1505 1502 1502 1508 1521 1530 1533 1553 1560 1565 1557 1544 1528 1519 1518 1517 1518 1519 1521 1523 1525 1526 1528 1530 1531 1533 1534 1535 1536 1538 1539 1540 1542 1543 1544 1545 1546 1547 1548 1549 1550 1551
1512 1518 1507 1503 1503 1508 1513 1525 1540 1553 1567 1569 1557 1550 1542 1525 1521 1519 1519 1520 1521 1523 1525 1526 1528 1529 1531 1532 1533 1535 1536 1537 1538 1540 1541 1542 1543 1543 1544 1545 1546 1547 1548 1549
1505 1517 1514 1508 1509 1514 1519 1527 1539 1552 1554 1568 1567 1554 1524 1521 1518 1518 1518 1519 1520 1522 1524 1526 1528 1529 1531 1532 1534 1535 1536 1537 1538 1539 1540 1541 1542 1543 1543 1544 1544 1545 1546 1547
1504 1517 1525 1515 1506 1505 1508 1519 1530 1544 1553 1558 1561 1550 1516 1515 1515 1516 1517 1518 1520 1522 1524 1526 1528 1529 1531 1532 1533 1535 1535 1536 1538 1539 1540 1541 1541 1542 1542 1542 1543 1544 1544 1545
1502 1517 1531 1527 1521 1511 1512 1518 1523 1534 1550 1560 1558 1543 1516 1514 1514 1515 1516 1518 1519 1521 1524 1526 1528 1529 1530 1532 1533 1534 1535 1536 1537 1538 1539 1540 1541 1541 1541 1541 1542 1542 1543 1544
1492 1512 1524 1531 1525 1514 1514 1517 1522 1529 1545 1551 1545 1533 1520 1516 1515 1515 1516 1517 1518 1521 1523 1525 1527 1529 1530 1532 1532 1534 1535 1536 1537 1538 1539 1539 1540 1540 1541 1541 1541 1541 1542 1543
1491 1508 1510 1510 1507 1507 1509 1512 1518 1521 1527 1535 1530 1528 1518 1513 1513 1513 1515 1517 1519 1520 1522 1525 1527 1529 1530 1531 1532 1533 1534 1535 1536 1537 1538 1539 1539 1540 1540 1540 1540 1541 1541 1542
1493 1504 1508 1509 1507 1507 1510 1511 1513 1515 1519 1521 1521 1521 1511 1510 1512 1513 1514 1516 1518 1520 1522 1524 1526 1527 1529 1530 1531 1532 1533 1534 1535 1536 1537 1538 1538 1539 1539 1539 1539 1540 1541 1541
1497 1504 1515 1520 1511 1509 1519 1514 1513 1513 1514 1516 1519 1514 1510 1510 1510 1511 1513 1514 1516 1518 1520 1522 1524 1526 1528 1529 1530 1531 1533 1534 1534 1535 1536 1537 1537 1538 1538 1539 1539 1539 1540 1540
1495 1506 1517 1523 1518 1530 1520 1508 1507 1511 1512 1511 1510 1509 1509 1509 1509 1511 1512 1513 1515 1517 1519 1521 1523 1525 1527 1529 1530 1531 1532 1533 1533 1535 1535 1536 1537 1537 1538 1538 1538 1539 1539 1540
1489 1501 1518 1528 1529 1524 1514 1507 1508 1511 1513 1509 1509 1508 1508 1509 1510 1511 1511 1512 1514 1516 1519 1521 1522 1524 1526 1528 1529 1530 1531 1532 1533 1534 1534 1535 1536 1536 1536 1537 1538 1538 1539 1539
1493 1497 1512 1525 1528 1531 1515 1504 1504 1508 1515 1508 1507 1508 1508 1509 1515 1513 1511 1512 1514 1516 1518 1520 1521 1523 1525 1526 1527 1529 1530 1530 1531 1532 1533 1534 1534 1535 1535 1536 1537 1537 1538 1538
1502 1507 1514 1521 1523 1519 1506 1503 1505 1518 1515 1506 1506 1507 1508 1509 1511 1512 1512 1513 1514 1516 1518 1519 1521 1522 1524 1525 1526 1527 1528 1529 1530 1531 1532 1532 1533 1534 1534 1535 1535 1536 1537 1537
1505 1511 1517 1521 1523 1521 1504 1503 1507 1508 1504 1504 1506 1507 1508 1509 1511 1511 1512 1513 1515 1516 1518 1519 1521 1522 1523 1524 1525 1526 1527 1528 1527 1529 1530 1531 1531 1532 1533 1534 1534 1535 1535 1536
1504 1506 1509 1511 1514 1507 1504 1503 1503 1503 1503 1505 1506 1507 1508 1509 1511 1512 1513 1514 1516 1516 1519 1520 1521 1522 1523 1524 1524 1524 1525 1526 1526 1527 1528 1529 1530 1531 1532 1532 1533 1533 1534 1534
1502 1502 1505 1507 1506 1505 1504 1504 1504 1504 1505 1506 1507 1509 1509 1510 1512 1513 1514 1515 1516 1517 1519 1520 1521 1522 1523 1523 1524 1524 1523 1523 1525 1526 1527 1528 1528 1529 1530 1531 1531 1532 1532 1533
1502 1502 1505 1507 1506 1504 1505 1505 1505 1506 1507 1508 1509 1511 1512 1512 1513 1514 1515 1516 1517 1519 1520 1521 1521 1522 1523 1523 1523 1523 1522 1523 1524 1525 1526 1526 1526 1527 1527 1528 1530 1530 1531 1532
1501 1502 1504 1506 1503 1505 1507 1507 1508 1508 1509 1510 1511 1512 1513 1514 1515 1516 1517 1518 1519 1520 1520 1521 1522 1522 1523 1523 1523 1523 1522 1523 1523 1524 1524 1524 1525 1526 1526 1527 1528 1529 1530 1531